カタログに戻る

STARLINK-11329

運用中通信VLEO
NORAD 61881·PAYLOAD·🇺🇸 United States

打ち上げ Nov 9, 2024 から Vandenberg Space Force Base

Loading…

次のパス (今後24時間)

TLE

最新Source: CelesTrak SupGP

元期: Sep 14, 2026, 21:40 UTC

1 61881C 24204H   26257.90326389 -.00047386  00000+0 -39023-3 0  2574
2 61881  53.1565 143.5088 0001069  94.0335 234.9388 15.69739725    12

AllMySatでSTARLINK-11329をリアルタイム追跡

Download on the App Store